Location: ??
(35.4627°N, 139.3695°E)
Time: 06:17:09
(UTC+00:00)

FALCON 9 DEB - Pass Details

Date: 25 November 2020
Orbit: 377 x 394 km, 53.0° (Epoch: 20 January)

Event Time Altitude Azimuth Distance (km) Brightness Sun altitude
Exits shadow 20:55:19 - 261° (W) 1,697 5.6 -7.1°
Reaches altitude 10° 20:56:06 10° 268° (W) 1,424 5.2 -6.9°
Maximum altitude 20:58:44 23° 324° (NW) 882 4.2 -6.4°
Drops below altitude 10° 21:01:24 10° 20° (NNE) 1,440 5.8 -5.9°
Sets 21:03:45 0° 36° (NE) 2,304 7.0 -5.5°
